Weather History for Wright-Patt AFB, OH

Change the Weather History Date:

Friday, October 26, 2012

  Actual Average Record
Temperature  
Mean Temperature 53 °F -  
Max Temperature 62 °F 59 °F 78 °F (2000)
Min Temperature 44 °F 39 °F 31 °F (2013)
Degree Days  
Heating Degree Days 12    
Growing Degree Days 3 (Base 50)    
Moisture  
Dew Point 45 °F    
Average Humidity 88    
Maximum Humidity 94    
Minimum Humidity 67    
Precipitation  
Precipitation 0.89 in - - ()
Sea Level Pressure  
Sea Level Pressure 30.13 in    
Wind  
Wind Speed 9 mph (North)    
Max Wind Speed 16 mph    
Max Gust Speed 20 mph    
Visibility 6 miles    
Events Rain    
Averages and records for this station are not official NWS values.
T = Trace of Precipitation, MM = Missing Value Source: NWS Daily Summary

Daily Weather History Graph

Daily Weather History Graph

Search for Another Location

Airport:

Trip Planner

Search our weather history database for the weather conditions in past years. The results will help you decide how hot, cold, wet, or windy it might be!

Date:

Astronomy

Oct. 26, 2012 Rise Set
Actual Time 7:58 AM EDT 6:40 PM EDT
Civil Twilight 7:31 AM EDT 7:08 PM EDT
Nautical Twilight 6:59 AM EDT 7:40 PM EDT
Astronomical Twilight 6:28 AM EDT 8:11 PM EDT
Moon 4:56 PM EDT (10/26) 4:54 AM EDT (10/26)
Length of Visible Light 11h 37m
Length of Day
10h 42m
Waxing Gibbous, 91% of the Moon is Illuminated
Oct 26
Waxing Gibbous
Oct 29
Full
Nov 6
Last Quarter
Nov 13
New
Nov 20
First Quarter

Hourly Weather History & Observations

Time (EDT) Temp. Windchill Dew Point Humidity Pressure Visibility Wind Dir Wind Speed Gust Speed Precip Events Conditions
12:55 AM 61.5 °F - 50.4 °F 67% 29.96 in 10.0 mi ESE 3.5 mph - N/A   Clear
1:55 AM 60.3 °F - 51.3 °F 72% 29.96 in 10.0 mi SW 5.8 mph - N/A   Partly Cloudy
2:55 AM 61.0 °F - 51.8 °F 72% 29.96 in 10.0 mi South 6.9 mph - N/A   Partly Cloudy
3:55 AM 62.2 °F - 53.4 °F 73% 29.96 in 10.0 mi SSW 8.1 mph - N/A   Scattered Clouds
4:55 AM 62.2 °F - 53.1 °F 72% 29.98 in 10.0 mi West 12.7 mph - N/A   Mostly Cloudy
5:41 AM 55.4 °F - 50.0 °F 82% 30.02 in 10.0 mi NW 16.1 mph - N/A   Mostly Cloudy
5:55 AM 54.9 °F - 50.9 °F 86% 30.04 in 10.0 mi WNW 11.5 mph - N/A   Mostly Cloudy
6:06 AM 55.4 °F - 50.0 °F 82% 30.04 in 10.0 mi NW 12.7 mph - N/A   Overcast
6:44 AM 53.6 °F - 50.0 °F 88% 30.06 in 10.0 mi NW 12.7 mph - N/A   Overcast
6:55 AM 54.0 °F - 49.3 °F 84% 30.07 in 10.0 mi NW 10.4 mph - N/A   Overcast
7:55 AM 53.1 °F - 47.5 °F 81% 30.10 in 10.0 mi NW 10.4 mph 19.6 mph N/A   Overcast
8:55 AM 51.1 °F - 46.0 °F 83% 30.13 in 10.0 mi NNW 9.2 mph - N/A   Overcast
9:55 AM 50.4 °F - 45.5 °F 83% 30.15 in 10.0 mi North 9.2 mph - N/A   Overcast
10:03 AM 50.0 °F - 44.6 °F 82% 30.16 in 10.0 mi North 9.2 mph - N/A   Overcast
10:33 AM 50.0 °F - 44.6 °F 82% 30.16 in 10.0 mi North 11.5 mph - N/A Rain Light Rain
10:55 AM 49.8 °F - 44.2 °F 81% 30.17 in 10.0 mi North 12.7 mph - 0.00 in Rain Light Rain
10:57 AM 50.0 °F - 42.8 °F 76% 30.17 in 10.0 mi North 13.8 mph - N/A   Overcast
11:04 AM 48.2 °F - 44.6 °F 87% 30.17 in 10.0 mi NNW 10.4 mph - N/A Rain Light Rain
11:55 AM 48.2 °F - 44.8 °F 88% 30.17 in 10.0 mi North 9.2 mph - 0.00 in Rain Light Rain
12:25 PM 48.2 °F - 46.4 °F 93% 30.16 in 4.0 mi North 6.9 mph - N/A Rain Light Rain
12:55 PM 47.8 °F - 45.9 °F 93% 30.17 in 4.0 mi NNW 9.2 mph - 0.03 in Rain Light Rain
1:21 PM 48.2 °F - 46.4 °F 93% 30.16 in 2.0 mi NNW 10.4 mph - N/A Rain Rain
1:55 PM 47.5 °F - 45.3 °F 92% 30.17 in 2.0 mi NNW 9.2 mph - 0.04 in Rain Rain
2:02 PM 46.4 °F 42.4 °F 44.6 °F 93% 30.15 in 2.0 mi NNW 8.1 mph - N/A Rain Heavy Rain
2:43 PM 46.4 °F 42.4 °F 44.6 °F 93% 30.17 in 2.0 mi NNW 8.1 mph - N/A Rain Heavy Rain
2:55 PM 47.1 °F - 45.3 °F 93% 30.16 in 2.0 mi North 12.7 mph - 0.04 in Rain Rain
3:10 PM 46.4 °F 41.5 °F 44.6 °F 93% 30.15 in 2.0 mi North 10.4 mph - N/A Rain Rain
3:30 PM 46.4 °F 42.4 °F 44.6 °F 93% 30.16 in 2.0 mi North 8.1 mph - N/A Rain Rain
3:50 PM 46.4 °F 42.4 °F 44.6 °F 93% 30.15 in 4.0 mi North 8.1 mph - N/A Rain Rain
3:55 PM 46.8 °F - 43.9 °F 90% 30.15 in 4.0 mi North 9.2 mph - 0.10 in Rain Light Rain
3:58 PM 46.4 °F 41.1 °F 44.6 °F 93% 30.14 in 4.0 mi North 11.5 mph - N/A Rain Light Rain
4:10 PM 46.4 °F 41.1 °F 44.6 °F 93% 30.15 in 4.0 mi North 11.5 mph - N/A   Light Drizzle
4:21 PM 46.4 °F 41.5 °F 42.8 °F 87% 30.14 in 4.0 mi North 10.4 mph - N/A   Light Drizzle
4:24 PM 46.4 °F 41.5 °F 44.6 °F 93% 30.15 in 4.0 mi North 10.4 mph - N/A   Light Drizzle
4:39 PM 46.4 °F 41.5 °F 44.6 °F 93% 30.15 in 3.0 mi North 10.4 mph - N/A Rain Light Rain
4:55 PM 46.4 °F 42.4 °F 44.1 °F 92% 30.15 in 3.0 mi North 8.1 mph - 0.04 in Rain Heavy Rain
5:02 PM 46.4 °F 42.4 °F 44.6 °F 93% 30.15 in 2.0 mi North 8.1 mph - N/A Rain Rain
5:21 PM 46.4 °F 41.9 °F 44.6 °F 93% 30.15 in 2.0 mi North 9.2 mph - N/A Rain Heavy Rain
5:34 PM 46.4 °F 42.4 °F 44.6 °F 93% 30.13 in 4.0 mi North 8.1 mph - N/A Rain Light Rain
5:43 PM 46.4 °F 41.9 °F 44.6 °F 93% 30.15 in 4.0 mi NNW 9.2 mph - N/A Rain Light Rain
5:55 PM 46.4 °F 42.4 °F 44.6 °F 93% 30.15 in 4.0 mi North 8.1 mph - 0.10 in Rain Light Rain
6:00 PM 46.4 °F 41.9 °F 44.6 °F 93% 30.15 in 4.0 mi North 9.2 mph - N/A Rain Light Rain
6:44 PM 46.4 °F 40.7 °F 44.6 °F 93% 30.16 in 4.0 mi North 12.7 mph 18.4 mph N/A Rain Rain
6:55 PM 46.0 °F 41.4 °F 44.1 °F 93% 30.16 in 4.0 mi North 9.2 mph 18.4 mph 0.06 in Rain Rain
7:02 PM 46.4 °F 41.5 °F 44.6 °F 93% 30.17 in 4.0 mi NNE 10.4 mph - N/A Rain Rain
7:14 PM 46.4 °F 41.9 °F 44.6 °F 93% 30.16 in 4.0 mi North 9.2 mph - N/A Rain Heavy Rain
7:22 PM 46.4 °F 41.5 °F 44.6 °F 93% 30.16 in 4.0 mi North 10.4 mph - N/A Rain Light Rain
7:37 PM 46.4 °F 40.4 °F 42.8 °F 87% 30.15 in 4.0 mi North 13.8 mph - N/A Rain Light Rain
7:55 PM 45.7 °F 40.2 °F 43.2 °F 91% 30.15 in 4.0 mi NNE 11.5 mph - 0.21 in Rain Light Rain
8:09 PM 46.4 °F 41.5 °F 42.8 °F 87% 30.16 in 4.0 mi NNE 10.4 mph - N/A Rain Rain
8:33 PM 46.4 °F 41.1 °F 42.8 °F 87% 30.15 in 4.0 mi North 11.5 mph - N/A Rain Rain
8:41 PM 44.6 °F 39.2 °F 42.8 °F 93% 30.15 in 4.0 mi North 10.4 mph - N/A Rain Rain
8:46 PM 44.6 °F 38.8 °F 42.8 °F 93% 30.15 in 4.0 mi NNE 11.5 mph - N/A Rain Rain
8:55 PM 45.5 °F 41.8 °F 43.3 °F 92% 30.15 in 4.0 mi North 6.9 mph - 0.07 in Rain Light Rain
9:55 PM 45.3 °F 40.6 °F 43.3 °F 93% 30.16 in 6.0 mi North 9.2 mph - 0.08 in Rain Rain
10:33 PM 44.6 °F 40.2 °F 42.8 °F 93% 30.15 in 10.0 mi NNW 8.1 mph - N/A Rain Light Rain
10:55 PM 44.6 °F 39.2 °F 42.8 °F 93% 30.15 in 5.0 mi North 10.4 mph - 0.07 in Rain Heavy Rain
11:07 PM 44.6 °F 39.2 °F 42.8 °F 93% 30.14 in 9.0 mi North 10.4 mph - N/A Rain Light Rain
11:36 PM 44.6 °F 39.7 °F 42.8 °F 93% 30.15 in 7.0 mi NNW 9.2 mph 18.4 mph N/A Rain Rain
11:55 PM 44.6 °F 38.8 °F 43.0 °F 94% 30.14 in 8.0 mi NNW 11.5 mph - 0.05 in Rain Rain